GW3192 Weather Reports


time (UTC)temp
C
wind
direction
speed
KPH
gust
KPH
rain 1hr
cm
rain 24hr
cm
rain mn
cm
humidity
%
barometer
mb
20260504044522 13 284 0.0 0.0 0.00 0.00 0.00 46 1006.1
20260504043003 13 284 0.0 1.6 0.00 0.00 0.00 44 1006.2
20260504041533 13 284 1.6 6.4 0.00 0.00 0.00 44 1006.4
20260504040015 13 284 0.0 0.0 0.00 0.00 0.00 43 1006.5
20260504034519 15 284 0.0 0.0 0.00 0.00 0.00 42 1006.7
20260504033022 15 284 0.0 0.0 0.00 0.00 0.00 39 1006.9
20260504031508 15 284 0.0 0.0 0.00 0.00 0.00 40 1007.1
20260504030012 15 284 0.0 0.0 0.00 0.00 0.00 40 1007.2
20260504024520 15 284 0.0 0.0 0.00 0.00 0.00 40 1007.3
20260504023019 16 284 0.0 0.0 0.00 0.00 0.00 38 1007.1
20260504021524 16 284 0.0 0.0 0.00 0.00 0.00 37 1007.1
20260504020028 16 284 0.0 1.6 0.00 0.00 0.00 36 1006.9
20260504014528 17 284 0.0 0.0 0.00 0.00 0.00 36 1006.8
20260504013020 17 284 0.0 3.2 0.00 0.00 0.00 35 1006.7
20260504011522 18 284 1.6 9.7 0.00 0.00 0.00 32 1006.5
20260504010023 20 284 1.6 12.9 0.00 0.00 0.00 30 1006.4
20260504004525 21 280 6.4 16.1 0.00 0.00 0.00 28 1006.4
20260504003016 21 314 14.5 19.3 0.00 0.00 0.00 27 1006.4
20260504001520 21 286 9.7 25.7 0.00 0.00 0.00 28 1006.4
20260504000021 22 284 9.7 19.3 0.00 0.00 0.00 28 1006.3
20260503234532 22 281 12.9 19.3 0.00 0.00 0.00 25 1006.2
20260503233035 22 279 12.9 24.1 0.00 0.00 0.00 28 1006.2
20260503231516 22 298 9.7 20.9 0.00 0.00 0.00 26 1006.2
20260503230023 22 296 14.5 27.4 0.00 0.00 0.00 26 1006.2
20260503224524 22 291 12.9 19.3 0.00 0.00 0.00 25 1006.2
20260503223028 22 284 14.5 25.7 0.00 0.00 0.00 24 1006.2
20260503221534 23 304 14.5 24.1 0.00 0.00 0.00 23 1006.0
20260503220020 23 289 16.1 29.0 0.00 0.00 0.00 23 1006.0
20260503214526 23 325 12.9 20.9 0.00 0.00 0.00 23 1005.9
20260503213026 23 311 12.9 24.1 0.00 0.00 0.00 24 1005.9
20260503211513 22 318 11.3 29.0 0.00 0.00 0.00 27 1006.1
20260503210020 22 329 16.1 29.0 0.00 0.00 0.00 27 1006.2
20260503204524 22 322 14.5 27.4 0.00 0.00 0.00 28 1006.3
20260503203031 22 326 14.5 29.0 0.00 0.00 0.00 26 1006.4
20260503201527 22 308 16.1 27.4 0.00 0.00 0.00 28 1006.6
20260503200016 22 289 14.5 24.1 0.00 0.00 0.00 33 1006.6
20260503194524 22 289 17.7 29.0 0.00 0.00 0.00 29 1006.6
20260503193026 22 342 16.1 30.6 0.00 0.00 0.00 31 1006.6
20260503191530 22 340 17.7 30.6 0.00 0.00 0.00 33 1006.6
20260503190017 22 277 16.1 27.4 0.00 0.00 0.00 33 1006.6
20260503184517 22 336 17.7 27.4 0.00 0.00 0.00 33 1006.6
20260503183004 22 300 17.7 33.8 0.00 0.00 0.00 32 1006.7
20260503181506 21 319 17.7 29.0 0.00 0.00 0.00 34 1006.6
20260503180011 21 307 14.5 24.1 0.00 0.00 0.00 36 1006.7
20260503174515 21 299 14.5 24.1 0.00 0.00 0.00 37 1006.8
20260503173027 20 300 16.1 24.1 0.00 0.00 0.00 38 1007.0
20260503171522 20 276 11.3 25.7 0.00 0.00 0.00 40 1007.0
20260503081509 12 209 1.6 12.9 0.00 0.00 0.00 46 1012.8